Terug naar catalogus

STARLINK-5826

ActiefCommunicatieVLEO
NORAD 55782·PAYLOAD·🇺🇸 United States

Gelanceerd Mar 3, 2023 vanaf Vandenberg Space Force Base

Loading…

Volgende Passages (komende 24 uur)

TLE

VersSource: CelesTrak SupGP

Epoch: Sep 15, 2026, 01:22 UTC

1 55782C 23028AT  26258.05743056  .00765380  00000+0  63492-1 0  2586
2 55782  70.0001  87.1756 0003026 278.9138 207.8911 14.98339551    17

Volg STARLINK-5826 in realtime met AllMySat

Download on the App Store